Year,Month,Day,Hour,Minute,Value (Times are PST for barometer in hPa)
2021,10,24,00,00,990.65
2021,10,24,00,01,990.68
2021,10,24,00,02,990.62
2021,10,24,00,03,990.61
2021,10,24,00,04,990.55
2021,10,24,00,05,990.55
2021,10,24,00,06,990.55
2021,10,24,00,07,990.55
2021,10,24,00,08,990.55
2021,10,24,00,09,990.52
2021,10,24,00,10,990.49
2021,10,24,00,11,990.45
2021,10,24,00,12,990.44
2021,10,24,00,13,990.38
2021,10,24,00,14,990.32
2021,10,24,00,15,990.27
2021,10,24,00,16,990.21
2021,10,24,00,17,990.18
2021,10,24,00,18,990.18
2021,10,24,00,19,990.15
2021,10,24,00,20,990.15
2021,10,24,00,21,990.14
2021,10,24,00,22,990.08
2021,10,24,00,23,990.04
2021,10,24,00,24,990.11
2021,10,24,00,25,990.04
2021,10,24,00,26,990.03
2021,10,24,00,27,989.94
2021,10,24,00,28,989.98
2021,10,24,00,29,990.01
2021,10,24,00,30,990.01
2021,10,24,00,31,990.03
2021,10,24,00,32,989.94
2021,10,24,00,33,989.88
2021,10,24,00,34,989.91
2021,10,24,00,35,989.84
2021,10,24,00,36,989.83
2021,10,24,00,37,989.77
2021,10,24,00,38,989.77
2021,10,24,00,39,989.74
2021,10,24,00,40,989.71
2021,10,24,00,41,989.67
2021,10,24,00,42,989.67
2021,10,24,00,43,989.66
2021,10,24,00,44,989.60
2021,10,24,00,45,989.57
2021,10,24,00,46,989.57
2021,10,24,00,47,989.57
2021,10,24,00,48,989.59
2021,10,24,00,49,989.54
2021,10,24,00,50,989.50
2021,10,24,00,51,989.57
2021,10,24,00,52,989.47
2021,10,24,00,53,989.43
2021,10,24,00,54,989.37
2021,10,24,00,55,989.33
2021,10,24,00,56,989.33
2021,10,24,00,57,989.40
2021,10,24,00,58,989.40
2021,10,24,00,59,989.39
2021,10,24,01,00,989.33
2021,10,24,01,01,989.27
2021,10,24,01,02,989.30
2021,10,24,01,03,989.30
2021,10,24,01,04,989.28
2021,10,24,01,05,989.33
2021,10,24,01,06,989.27
2021,10,24,01,07,989.20
2021,10,24,01,08,989.23
2021,10,24,01,09,989.23
2021,10,24,01,10,989.23
2021,10,24,01,11,989.27
2021,10,24,01,12,989.30
2021,10,24,01,13,989.33
2021,10,24,01,14,989.27
2021,10,24,01,15,989.23
2021,10,24,01,16,989.22
2021,10,24,01,17,989.13
2021,10,24,01,18,989.16
2021,10,24,01,19,989.16
2021,10,24,01,20,989.10
2021,10,24,01,21,989.13
2021,10,24,01,22,989.06
2021,10,24,01,23,989.04
2021,10,24,01,24,989.10
2021,10,24,01,25,989.06
2021,10,24,01,26,989.06
2021,10,24,01,27,989.10
2021,10,24,01,28,989.10
2021,10,24,01,29,989.03
2021,10,24,01,30,989.06
2021,10,24,01,31,989.03
2021,10,24,01,32,989.06
2021,10,24,01,33,989.06
2021,10,24,01,34,989.03
2021,10,24,01,35,989.10
2021,10,24,01,36,989.13
2021,10,24,01,37,989.10
2021,10,24,01,38,989.06
2021,10,24,01,39,989.03
2021,10,24,01,40,989.03
2021,10,24,01,41,989.00
2021,10,24,01,42,989.03
2021,10,24,01,43,989.00
2021,10,24,01,44,989.03
2021,10,24,01,45,988.96
2021,10,24,01,46,988.96
2021,10,24,01,47,988.86
2021,10,24,01,48,988.86
2021,10,24,01,49,988.83
2021,10,24,01,50,988.79
2021,10,24,01,51,988.79
2021,10,24,01,52,988.76
2021,10,24,01,53,988.76
2021,10,24,01,54,988.72
2021,10,24,01,55,988.69
2021,10,24,01,56,988.62
2021,10,24,01,57,988.66
2021,10,24,01,58,988.63
2021,10,24,01,59,988.68
2021,10,24,02,00,988.59
2021,10,24,02,01,988.55
2021,10,24,02,02,988.52
2021,10,24,02,03,988.55
2021,10,24,02,04,988.52
2021,10,24,02,05,988.49
2021,10,24,02,06,988.45
2021,10,24,02,07,988.39
2021,10,24,02,08,988.35
2021,10,24,02,09,988.32
2021,10,24,02,10,988.28
2021,10,24,02,11,988.28
2021,10,24,02,12,988.25
2021,10,24,02,13,988.22
2021,10,24,02,14,988.25
2021,10,24,02,15,988.22
2021,10,24,02,16,988.25
2021,10,24,02,17,988.22
2021,10,24,02,18,988.22
2021,10,24,02,19,988.25
2021,10,24,02,20,988.18
2021,10,24,02,21,988.15
2021,10,24,02,22,988.18
2021,10,24,02,23,988.11
2021,10,24,02,24,988.08
2021,10,24,02,25,988.05
2021,10,24,02,26,988.01
2021,10,24,02,27,988.01
2021,10,24,02,28,987.98
2021,10,24,02,29,987.98
2021,10,24,02,30,987.91
2021,10,24,02,31,987.95
2021,10,24,02,32,987.88
2021,10,24,02,33,987.91
2021,10,24,02,34,987.88
2021,10,24,02,35,987.84
2021,10,24,02,36,987.81
2021,10,24,02,37,987.74
2021,10,24,02,38,987.71
2021,10,24,02,39,987.67
2021,10,24,02,40,987.67
2021,10,24,02,41,987.64
2021,10,24,02,42,987.66
2021,10,24,02,43,987.57
2021,10,24,02,44,987.57
2021,10,24,02,45,987.57
2021,10,24,02,46,987.57
2021,10,24,02,47,987.47
2021,10,24,02,48,987.51
2021,10,24,02,49,987.47
2021,10,24,02,50,987.47
2021,10,24,02,51,987.47
2021,10,24,02,52,987.47
2021,10,24,02,53,987.40
2021,10,24,02,54,987.44
2021,10,24,02,55,987.44
2021,10,24,02,56,987.40
2021,10,24,02,57,987.37
2021,10,24,02,58,987.34
2021,10,24,02,59,987.37
2021,10,24,03,00,987.30
2021,10,24,03,01,987.30
2021,10,24,03,02,987.22
2021,10,24,03,03,987.13
2021,10,24,03,04,987.10
2021,10,24,03,05,987.03
2021,10,24,03,06,987.03
2021,10,24,03,07,986.99
2021,10,24,03,08,986.90
2021,10,24,03,09,986.93
2021,10,24,03,10,986.93
2021,10,24,03,11,986.96
2021,10,24,03,12,986.90
2021,10,24,03,13,986.90
2021,10,24,03,14,986.90
2021,10,24,03,15,986.86
2021,10,24,03,16,986.90
2021,10,24,03,17,986.83
2021,10,24,03,18,986.76
2021,10,24,03,19,986.76
2021,10,24,03,20,986.66
2021,10,24,03,21,986.62
2021,10,24,03,22,986.56
2021,10,24,03,23,986.52
2021,10,24,03,24,986.52
2021,10,24,03,25,986.59
2021,10,24,03,26,986.59
2021,10,24,03,27,986.59
2021,10,24,03,28,986.51
2021,10,24,03,29,986.35
2021,10,24,03,30,986.32
2021,10,24,03,31,986.22
2021,10,24,03,32,986.12
2021,10,24,03,33,986.12
2021,10,24,03,34,986.12
2021,10,24,03,35,986.08
2021,10,24,03,36,986.02
2021,10,24,03,37,985.95
2021,10,24,03,38,985.88
2021,10,24,03,39,985.88
2021,10,24,03,40,985.88
2021,10,24,03,41,985.85
2021,10,24,03,42,985.88
2021,10,24,03,43,985.85
2021,10,24,03,44,985.81
2021,10,24,03,45,985.78
2021,10,24,03,46,985.74
2021,10,24,03,47,985.71
2021,10,24,03,48,985.71
2021,10,24,03,49,985.68
2021,10,24,03,50,985.61
2021,10,24,03,51,985.57
2021,10,24,03,52,985.57
2021,10,24,03,53,985.54
2021,10,24,03,54,985.47
2021,10,24,03,55,985.44
2021,10,24,03,56,985.44
2021,10,24,03,57,985.41
2021,10,24,03,58,985.41
2021,10,24,03,59,985.37
2021,10,24,04,00,985.34
2021,10,24,04,01,985.20
2021,10,24,04,02,985.20
2021,10,24,04,03,985.10
2021,10,24,04,04,985.06
2021,10,24,04,05,984.93
2021,10,24,04,06,984.97
2021,10,24,04,07,984.97
2021,10,24,04,08,985.07
2021,10,24,04,09,985.10
2021,10,24,04,10,985.13
2021,10,24,04,11,985.13
2021,10,24,04,12,985.10
2021,10,24,04,13,985.03
2021,10,24,04,14,984.99
2021,10,24,04,15,984.90
2021,10,24,04,16,984.83
2021,10,24,04,17,984.72
2021,10,24,04,18,984.56
2021,10,24,04,19,984.49
2021,10,24,04,20,984.42
2021,10,24,04,21,984.42
2021,10,24,04,22,984.42
2021,10,24,04,23,984.42
2021,10,24,04,24,984.36
2021,10,24,04,25,984.28
2021,10,24,04,26,984.15
2021,10,24,04,27,984.15
2021,10,24,04,28,984.22
2021,10,24,04,29,984.25
2021,10,24,04,30,984.29
2021,10,24,04,31,984.24
2021,10,24,04,32,984.12
2021,10,24,04,33,984.08
2021,10,24,04,34,984.08
2021,10,24,04,35,984.05
2021,10,24,04,36,984.02
2021,10,24,04,37,983.98
2021,10,24,04,38,983.95
2021,10,24,04,39,983.92
2021,10,24,04,40,983.92
2021,10,24,04,41,983.88
2021,10,24,04,42,983.88
2021,10,24,04,43,983.88
2021,10,24,04,44,983.92
2021,10,24,04,45,983.88
2021,10,24,04,46,983.78
2021,10,24,04,47,983.71
2021,10,24,04,48,983.68
2021,10,24,04,49,983.71
2021,10,24,04,50,983.75
2021,10,24,04,51,983.75
2021,10,24,04,52,983.71
2021,10,24,04,53,983.65
2021,10,24,04,54,983.78
2021,10,24,04,55,983.81
2021,10,24,04,56,983.84
2021,10,24,04,57,983.75
2021,10,24,04,58,983.68
2021,10,24,04,59,983.71
2021,10,24,05,00,983.71
2021,10,24,05,01,983.75
2021,10,24,05,02,983.71
2021,10,24,05,03,983.71
2021,10,24,05,04,983.68
2021,10,24,05,05,983.71
2021,10,24,05,06,983.68
2021,10,24,05,07,983.64
2021,10,24,05,08,983.57
2021,10,24,05,09,983.44
2021,10,24,05,10,983.37
2021,10,24,05,11,983.34
2021,10,24,05,12,983.27
2021,10,24,05,13,983.27
2021,10,24,05,14,983.24
2021,10,24,05,15,983.24
2021,10,24,05,16,983.24
2021,10,24,05,17,983.20
2021,10,24,05,18,983.24
2021,10,24,05,19,983.17
2021,10,24,05,20,983.14
2021,10,24,05,21,983.07
2021,10,24,05,22,982.97
2021,10,24,05,23,982.90
2021,10,24,05,24,982.83
2021,10,24,05,25,982.83
2021,10,24,05,26,982.80
2021,10,24,05,27,982.73
2021,10,24,05,28,982.73
2021,10,24,05,29,982.70
2021,10,24,05,30,982.70
2021,10,24,05,31,982.63
2021,10,24,05,32,982.56
2021,10,24,05,33,982.53
2021,10,24,05,34,982.48
2021,10,24,05,35,982.39
2021,10,24,05,36,982.28
2021,10,24,05,37,982.19
2021,10,24,05,38,982.18
2021,10,24,05,39,982.02
2021,10,24,05,40,982.09
2021,10,24,05,41,982.09
2021,10,24,05,42,982.05
2021,10,24,05,43,982.02
2021,10,24,05,44,981.95
2021,10,24,05,45,981.92
2021,10,24,05,46,982.02
2021,10,24,05,47,982.02
2021,10,24,05,48,982.02
2021,10,24,05,49,981.99
2021,10,24,05,50,982.05
2021,10,24,05,51,982.12
2021,10,24,05,52,982.05
2021,10,24,05,53,981.98
2021,10,24,05,54,981.85
2021,10,24,05,55,981.82
2021,10,24,05,56,981.74
2021,10,24,05,57,981.65
2021,10,24,05,58,981.65
2021,10,24,05,59,981.54
2021,10,24,06,00,981.38
2021,10,24,06,01,981.38
2021,10,24,06,02,981.17
2021,10,24,06,03,981.21
2021,10,24,06,04,981.14
2021,10,24,06,05,981.20
2021,10,24,06,06,981.04
2021,10,24,06,07,980.97
2021,10,24,06,08,980.90
2021,10,24,06,09,980.94
2021,10,24,06,10,980.83
2021,10,24,06,11,980.72
2021,10,24,06,12,980.63
2021,10,24,06,13,980.56
2021,10,24,06,14,980.56
2021,10,24,06,15,980.60
2021,10,24,06,16,980.60
2021,10,24,06,17,980.59
2021,10,24,06,18,980.49
2021,10,24,06,19,980.39
2021,10,24,06,20,980.33
2021,10,24,06,21,980.25
2021,10,24,06,22,980.12
2021,10,24,06,23,980.18
2021,10,24,06,24,980.09
2021,10,24,06,25,980.06
2021,10,24,06,26,980.06
2021,10,24,06,27,980.09
2021,10,24,06,28,980.09
2021,10,24,06,29,980.16
2021,10,24,06,30,980.06
2021,10,24,06,31,979.99
2021,10,24,06,32,980.02
2021,10,24,06,33,979.92
2021,10,24,06,34,979.84
2021,10,24,06,35,979.75
2021,10,24,06,36,979.72
2021,10,24,06,37,979.68
2021,10,24,06,38,979.68
2021,10,24,06,39,979.68
2021,10,24,06,40,979.68
2021,10,24,06,41,979.61
2021,10,24,06,42,979.55
2021,10,24,06,43,979.58
2021,10,24,06,44,979.58
2021,10,24,06,45,979.58
2021,10,24,06,46,979.58
2021,10,24,06,47,979.51
2021,10,24,06,48,979.51
2021,10,24,06,49,979.45
2021,10,24,06,50,979.34
2021,10,24,06,51,979.34
2021,10,24,06,52,979.34
2021,10,24,06,53,979.38
2021,10,24,06,54,979.34
2021,10,24,06,55,979.28
2021,10,24,06,56,979.28
2021,10,24,06,57,979.28
2021,10,24,06,58,979.31
2021,10,24,06,59,979.28
2021,10,24,07,00,979.24
2021,10,24,07,01,979.17
2021,10,24,07,02,979.17
2021,10,24,07,03,979.11
2021,10,24,07,04,979.13
2021,10,24,07,05,979.01
2021,10,24,07,06,978.97
2021,10,24,07,07,978.90
2021,10,24,07,08,978.86
2021,10,24,07,09,978.70
2021,10,24,07,10,978.63
2021,10,24,07,11,978.70
2021,10,24,07,12,978.67
2021,10,24,07,13,978.63
2021,10,24,07,14,978.63
2021,10,24,07,15,978.63
2021,10,24,07,16,978.60
2021,10,24,07,17,978.57
2021,10,24,07,18,978.60
2021,10,24,07,19,978.60
2021,10,24,07,20,978.53
2021,10,24,07,21,978.50
2021,10,24,07,22,978.46
2021,10,24,07,23,978.43
2021,10,24,07,24,978.36
2021,10,24,07,25,978.39
2021,10,24,07,26,978.29
2021,10,24,07,27,978.19
2021,10,24,07,28,978.19
2021,10,24,07,29,978.26
2021,10,24,07,30,978.26
2021,10,24,07,31,978.26
2021,10,24,07,32,978.19
2021,10,24,07,33,978.19
2021,10,24,07,34,978.16
2021,10,24,07,35,978.09
2021,10,24,07,36,978.06
2021,10,24,07,37,977.99
2021,10,24,07,38,977.92
2021,10,24,07,39,977.85
2021,10,24,07,40,977.82
2021,10,24,07,41,977.75
2021,10,24,07,42,977.79
2021,10,24,07,43,977.75
2021,10,24,07,44,977.72
2021,10,24,07,45,977.65
2021,10,24,07,46,977.65
2021,10,24,07,47,977.55
2021,10,24,07,48,977.52
2021,10,24,07,49,977.55
2021,10,24,07,50,977.52
2021,10,24,07,51,977.48
2021,10,24,07,52,977.48
2021,10,24,07,53,977.48
2021,10,24,07,54,977.58
2021,10,24,07,55,977.52
2021,10,24,07,56,977.48
2021,10,24,07,57,977.48
2021,10,24,07,58,977.41
2021,10,24,07,59,977.38
2021,10,24,08,00,977.38
2021,10,24,08,01,977.38
2021,10,24,08,02,977.35
2021,10,24,08,03,977.31
2021,10,24,08,04,977.24
2021,10,24,08,05,977.18
2021,10,24,08,06,977.10
2021,10,24,08,07,977.01
2021,10,24,08,08,976.97
2021,10,24,08,09,976.94
2021,10,24,08,10,976.94
2021,10,24,08,11,976.94
2021,10,24,08,12,976.97
2021,10,24,08,13,976.97
2021,10,24,08,14,977.01
2021,10,24,08,15,977.04
2021,10,24,08,16,976.97
2021,10,24,08,17,976.97
2021,10,24,08,18,976.91
2021,10,24,08,19,976.91
2021,10,24,08,20,976.97
2021,10,24,08,21,977.01
2021,10,24,08,22,977.04
2021,10,24,08,23,977.04
2021,10,24,08,24,977.04
2021,10,24,08,25,976.97
2021,10,24,08,26,976.94
2021,10,24,08,27,976.91
2021,10,24,08,28,976.84
2021,10,24,08,29,976.86
2021,10,24,08,30,976.77
2021,10,24,08,31,976.77
2021,10,24,08,32,976.77
2021,10,24,08,33,976.77
2021,10,24,08,34,976.77
2021,10,24,08,35,976.77
2021,10,24,08,36,976.77
2021,10,24,08,37,976.77
2021,10,24,08,38,976.77
2021,10,24,08,39,976.77
2021,10,24,08,40,976.70
2021,10,24,08,41,976.74
2021,10,24,08,42,976.70
2021,10,24,08,43,976.67
2021,10,24,08,44,976.70
2021,10,24,08,45,976.67
2021,10,24,08,46,976.57
2021,10,24,08,47,976.57
2021,10,24,08,48,976.60
2021,10,24,08,49,976.50
2021,10,24,08,50,976.43
2021,10,24,08,51,976.43
2021,10,24,08,52,976.43
2021,10,24,08,53,976.43
2021,10,24,08,54,976.43
2021,10,24,08,55,976.50
2021,10,24,08,56,976.53
2021,10,24,08,57,976.50
2021,10,24,08,58,976.57
2021,10,24,08,59,976.63
2021,10,24,09,00,976.57
2021,10,24,09,01,976.63
2021,10,24,09,02,976.63
2021,10,24,09,03,976.57
2021,10,24,09,04,976.60
2021,10,24,09,05,976.57
2021,10,24,09,06,976.60
2021,10,24,09,07,976.53
2021,10,24,09,08,976.53
2021,10,24,09,09,976.47
2021,10,24,09,10,976.47
2021,10,24,09,11,976.43
2021,10,24,09,12,976.47
2021,10,24,09,13,976.47
2021,10,24,09,14,976.43
2021,10,24,09,15,976.43
2021,10,24,09,16,976.36
2021,10,24,09,17,976.40
2021,10,24,09,18,976.40
2021,10,24,09,19,976.40
2021,10,24,09,20,976.43
2021,10,24,09,21,976.40
2021,10,24,09,22,976.36
2021,10,24,09,23,976.40
2021,10,24,09,24,976.36
2021,10,24,09,25,976.33
2021,10,24,09,26,976.33
2021,10,24,09,27,976.30
2021,10,24,09,28,976.33
2021,10,24,09,29,976.36
2021,10,24,09,30,976.40
2021,10,24,09,31,976.43
2021,10,24,09,32,976.50
2021,10,24,09,33,976.47
2021,10,24,09,34,976.47
2021,10,24,09,35,976.50
2021,10,24,09,36,976.43
2021,10,24,09,37,976.30
2021,10,24,09,38,976.19
2021,10,24,09,39,976.16
2021,10,24,09,40,976.09
2021,10,24,09,41,976.06
2021,10,24,09,42,976.09
2021,10,24,09,43,976.09
2021,10,24,09,44,976.03
2021,10,24,09,45,975.89
2021,10,24,09,46,975.72
2021,10,24,09,47,975.65
2021,10,24,09,48,975.65
2021,10,24,09,49,975.65
2021,10,24,09,50,975.49
2021,10,24,09,51,975.52
2021,10,24,09,52,975.42
2021,10,24,09,53,975.38
2021,10,24,09,54,975.42
2021,10,24,09,55,975.42
2021,10,24,09,56,975.48
2021,10,24,09,57,975.52
2021,10,24,09,58,975.62
2021,10,24,09,59,975.55
2021,10,24,10,00,975.42
2021,10,24,10,01,975.38
2021,10,24,10,02,975.35
2021,10,24,10,03,975.28
2021,10,24,10,04,975.18
2021,10,24,10,05,975.25
2021,10,24,10,06,975.08
2021,10,24,10,07,975.18
2021,10,24,10,08,975.14
2021,10,24,10,09,975.08
2021,10,24,10,10,975.04
2021,10,24,10,11,975.04
2021,10,24,10,12,975.08
2021,10,24,10,13,975.08
2021,10,24,10,14,975.08
2021,10,24,10,15,975.11
2021,10,24,10,16,975.11
2021,10,24,10,17,975.11
2021,10,24,10,18,975.18
2021,10,24,10,19,975.18
2021,10,24,10,20,975.25
2021,10,24,10,21,975.31
2021,10,24,10,22,975.25
2021,10,24,10,23,975.30
2021,10,24,10,24,975.14
2021,10,24,10,25,975.18
2021,10,24,10,26,975.04
2021,10,24,10,27,974.98
2021,10,24,10,28,974.91
2021,10,24,10,29,974.94
2021,10,24,10,30,974.84
2021,10,24,10,31,974.84
2021,10,24,10,32,974.84
2021,10,24,10,33,974.87
2021,10,24,10,34,974.84
2021,10,24,10,35,974.74
2021,10,24,10,36,974.67
2021,10,24,10,37,974.67
2021,10,24,10,38,974.60
2021,10,24,10,39,974.60
2021,10,24,10,40,974.64
2021,10,24,10,41,974.54
2021,10,24,10,42,974.47
2021,10,24,10,43,974.50
2021,10,24,10,44,974.47
2021,10,24,10,45,974.47
2021,10,24,10,46,974.50
2021,10,24,10,47,974.60
2021,10,24,10,48,974.54
2021,10,24,10,49,974.47
2021,10,24,10,50,974.54
2021,10,24,10,51,974.54
2021,10,24,10,52,974.54
2021,10,24,10,53,974.67
2021,10,24,10,54,974.64
2021,10,24,10,55,974.67
2021,10,24,10,56,974.60
2021,10,24,10,57,974.48
2021,10,24,10,58,974.43
2021,10,24,10,59,974.43
2021,10,24,11,00,974.54
2021,10,24,11,01,974.57
2021,10,24,11,02,974.60
2021,10,24,11,03,974.64
2021,10,24,11,04,974.57
2021,10,24,11,05,974.60
2021,10,24,11,06,974.50
2021,10,24,11,07,974.43
2021,10,24,11,08,974.34
2021,10,24,11,09,974.30
2021,10,24,11,10,974.33
2021,10,24,11,11,974.37
2021,10,24,11,12,974.40
2021,10,24,11,13,974.43
2021,10,24,11,14,974.47
2021,10,24,11,15,974.54
2021,10,24,11,16,974.54
2021,10,24,11,17,974.64
2021,10,24,11,18,974.54
2021,10,24,11,19,974.54
2021,10,24,11,20,974.57
2021,10,24,11,21,974.67
2021,10,24,11,22,974.54
2021,10,24,11,23,974.54
2021,10,24,11,24,974.50
2021,10,24,11,25,974.50
2021,10,24,11,26,974.54
2021,10,24,11,27,974.47
2021,10,24,11,28,974.30
2021,10,24,11,29,974.26
2021,10,24,11,30,974.26
2021,10,24,11,31,974.33
2021,10,24,11,32,974.40
2021,10,24,11,33,974.27
2021,10,24,11,34,974.37
2021,10,24,11,35,974.43
2021,10,24,11,36,974.47
2021,10,24,11,37,974.50
2021,10,24,11,38,974.54
2021,10,24,11,39,974.66
2021,10,24,11,40,974.30
2021,10,24,11,41,974.47
2021,10,24,11,42,974.47
2021,10,24,11,43,974.50
2021,10,24,11,44,974.26
2021,10,24,11,45,974.30
2021,10,24,11,46,974.37
2021,10,24,11,47,974.30
2021,10,24,11,48,974.40
2021,10,24,11,49,974.33
2021,10,24,11,50,974.37
2021,10,24,11,51,974.40
2021,10,24,11,52,974.50
2021,10,24,11,53,974.40
2021,10,24,11,54,974.23
2021,10,24,11,55,974.33
2021,10,24,11,56,974.54
2021,10,24,11,57,974.54
2021,10,24,11,58,974.54
2021,10,24,11,59,974.47
2021,10,24,12,00,974.57
2021,10,24,12,01,974.40
2021,10,24,12,02,974.43
2021,10,24,12,03,974.40
2021,10,24,12,04,974.30
2021,10,24,12,05,974.16
2021,10,24,12,06,974.30
2021,10,24,12,07,974.23
2021,10,24,12,08,974.16
2021,10,24,12,09,973.99
2021,10,24,12,10,974.16
2021,10,24,12,11,974.10
2021,10,24,12,12,974.20
2021,10,24,12,13,974.16
2021,10,24,12,14,974.20
2021,10,24,12,15,974.10
2021,10,24,12,16,974.23
2021,10,24,12,17,974.10
2021,10,24,12,18,974.16
2021,10,24,12,19,973.96
2021,10,24,12,20,973.83
2021,10,24,12,21,973.76
2021,10,24,12,22,973.86
2021,10,24,12,23,973.82
2021,10,24,12,24,973.65
2021,10,24,12,25,973.93
2021,10,24,12,26,973.89
2021,10,24,12,27,973.99
2021,10,24,12,28,974.16
2021,10,24,12,29,973.79
2021,10,24,12,30,973.76
2021,10,24,12,31,973.82
2021,10,24,12,32,973.76
2021,10,24,12,33,973.55
2021,10,24,12,34,973.65
2021,10,24,12,35,973.79
2021,10,24,12,36,973.79
2021,10,24,12,37,973.72
2021,10,24,12,38,973.86
2021,10,24,12,39,973.69
2021,10,24,12,40,973.79
2021,10,24,12,41,973.79
2021,10,24,12,42,973.82
2021,10,24,12,43,973.96
2021,10,24,12,44,973.86
2021,10,24,12,45,973.76
2021,10,24,12,46,974.03
2021,10,24,12,47,974.03
2021,10,24,12,48,973.93
2021,10,24,12,49,974.20
2021,10,24,12,50,974.03
2021,10,24,12,51,974.10
2021,10,24,12,52,974.23
2021,10,24,12,53,974.20
2021,10,24,12,54,974.30
2021,10,24,12,55,974.30
2021,10,24,12,56,974.20
2021,10,24,12,57,974.23
2021,10,24,12,58,974.26
2021,10,24,12,59,974.16
2021,10,24,13,00,974.30
2021,10,24,13,01,974.30
2021,10,24,13,02,974.50
2021,10,24,13,03,974.31
2021,10,24,13,04,974.40
2021,10,24,13,05,974.33
2021,10,24,13,06,974.47
2021,10,24,13,07,974.33
2021,10,24,13,08,974.30
2021,10,24,13,09,974.30
2021,10,24,13,10,974.16
2021,10,24,13,11,974.20
2021,10,24,13,12,974.33
2021,10,24,13,13,974.47
2021,10,24,13,14,974.43
2021,10,24,13,15,974.40
2021,10,24,13,16,974.47
2021,10,24,13,17,974.47
2021,10,24,13,18,974.54
2021,10,24,13,19,974.54
2021,10,24,13,20,974.54
2021,10,24,13,21,974.57
2021,10,24,13,22,974.60
2021,10,24,13,23,974.57
2021,10,24,13,24,974.69
2021,10,24,13,25,974.60
2021,10,24,13,26,974.54
2021,10,24,13,27,974.43
2021,10,24,13,28,974.40
2021,10,24,13,29,974.40
2021,10,24,13,30,974.43
2021,10,24,13,31,974.37
2021,10,24,13,32,974.37
2021,10,24,13,33,974.43
2021,10,24,13,34,974.50
2021,10,24,13,35,974.57
2021,10,24,13,36,974.57
2021,10,24,13,37,974.50
2021,10,24,13,38,974.43
2021,10,24,13,39,974.24
2021,10,24,13,40,974.13
2021,10,24,13,41,974.20
2021,10,24,13,42,974.23
2021,10,24,13,43,974.43
2021,10,24,13,44,974.54
2021,10,24,13,45,974.47
2021,10,24,13,46,974.30
2021,10,24,13,47,974.03
2021,10,24,13,48,973.79
2021,10,24,13,49,973.53
2021,10,24,13,50,973.35
2021,10,24,13,51,973.32
2021,10,24,13,52,973.42
2021,10,24,13,53,973.62
2021,10,24,13,54,973.86
2021,10,24,13,55,974.03
2021,10,24,13,56,974.16
2021,10,24,13,57,974.33
2021,10,24,13,58,974.60
2021,10,24,13,59,974.84
2021,10,24,14,00,975.11
2021,10,24,14,01,975.37
2021,10,24,14,02,975.59
2021,10,24,14,03,975.68
2021,10,24,14,04,975.82
2021,10,24,14,05,975.96
2021,10,24,14,06,975.92
2021,10,24,14,07,975.92
2021,10,24,14,08,975.92
2021,10,24,14,09,975.96
2021,10,24,14,10,975.89
2021,10,24,14,11,975.75
2021,10,24,14,12,975.65
2021,10,24,14,13,975.53
2021,10,24,14,14,975.45
2021,10,24,14,15,975.32
2021,10,24,14,16,975.31
2021,10,24,14,17,975.14
2021,10,24,14,18,974.87
2021,10,24,14,19,974.43
2021,10,24,14,20,974.20
2021,10,24,14,21,974.03
2021,10,24,14,22,974.10
2021,10,24,14,23,974.36
2021,10,24,14,24,974.64
2021,10,24,14,25,974.64
2021,10,24,14,26,974.60
2021,10,24,14,27,974.51
2021,10,24,14,28,974.57
2021,10,24,14,29,974.64
2021,10,24,14,30,974.60
2021,10,24,14,31,974.64
2021,10,24,14,32,974.60
2021,10,24,14,33,974.60
2021,10,24,14,34,974.74
2021,10,24,14,35,974.86
2021,10,24,14,36,974.91
2021,10,24,14,37,974.91
2021,10,24,14,38,974.81
2021,10,24,14,39,974.67
2021,10,24,14,40,974.57
2021,10,24,14,41,974.54
2021,10,24,14,42,974.40
2021,10,24,14,43,974.33
2021,10,24,14,44,974.26
2021,10,24,14,45,974.26
2021,10,24,14,46,974.23
2021,10,24,14,47,974.23
2021,10,24,14,48,974.20
2021,10,24,14,49,974.23
2021,10,24,14,50,974.26
2021,10,24,14,51,974.30
2021,10,24,14,52,974.54
2021,10,24,14,53,974.60
2021,10,24,14,54,974.64
2021,10,24,14,55,974.64
2021,10,24,14,56,974.64
2021,10,24,14,57,974.74
2021,10,24,14,58,974.77
2021,10,24,14,59,974.81
2021,10,24,15,00,974.87
2021,10,24,15,01,974.94
2021,10,24,15,02,975.01
2021,10,24,15,03,975.11
2021,10,24,15,04,975.08
2021,10,24,15,05,975.11
2021,10,24,15,06,975.11
2021,10,24,15,07,975.14
2021,10,24,15,08,975.18
2021,10,24,15,09,975.18
2021,10,24,15,10,975.18
2021,10,24,15,11,975.18
2021,10,24,15,12,975.21
2021,10,24,15,13,975.18
2021,10,24,15,14,975.18
2021,10,24,15,15,975.18
2021,10,24,15,16,975.14
2021,10,24,15,17,975.11
2021,10,24,15,18,975.08
2021,10,24,15,19,975.01
2021,10,24,15,20,974.87
2021,10,24,15,21,974.84
2021,10,24,15,22,974.77
2021,10,24,15,23,974.84
2021,10,24,15,24,974.84
2021,10,24,15,25,974.84
2021,10,24,15,26,974.84
2021,10,24,15,27,974.94
2021,10,24,15,28,975.11
2021,10,24,15,29,975.14
2021,10,24,15,30,975.25
2021,10,24,15,31,975.35
2021,10,24,15,32,975.52
2021,10,24,15,33,975.62
2021,10,24,15,34,975.72
2021,10,24,15,35,975.75
2021,10,24,15,36,975.75
2021,10,24,15,37,975.72
2021,10,24,15,38,975.75
2021,10,24,15,39,975.79
2021,10,24,15,40,975.82
2021,10,24,15,41,975.79
2021,10,24,15,42,975.82
2021,10,24,15,43,975.75
2021,10,24,15,44,975.82
2021,10,24,15,45,975.86
2021,10,24,15,46,975.89
2021,10,24,15,47,975.82
2021,10,24,15,48,975.86
2021,10,24,15,49,975.89
2021,10,24,15,50,975.86
2021,10,24,15,51,975.86
2021,10,24,15,52,975.89
2021,10,24,15,53,975.96
2021,10,24,15,54,975.92
2021,10,24,15,55,975.99
2021,10,24,15,56,975.99
2021,10,24,15,57,975.96
2021,10,24,15,58,975.92
2021,10,24,15,59,975.89
2021,10,24,16,00,975.82
2021,10,24,16,01,975.79
2021,10,24,16,02,975.70
2021,10,24,16,03,975.62
2021,10,24,16,04,975.59
2021,10,24,16,05,975.55
2021,10,24,16,06,975.59
2021,10,24,16,07,975.62
2021,10,24,16,08,975.72
2021,10,24,16,09,975.79
2021,10,24,16,10,975.89
2021,10,24,16,11,975.86
2021,10,24,16,12,975.86
2021,10,24,16,13,975.82
2021,10,24,16,14,975.79
2021,10,24,16,15,975.79
2021,10,24,16,16,975.75
2021,10,24,16,17,975.75
2021,10,24,16,18,975.75
2021,10,24,16,19,975.72
2021,10,24,16,20,975.69
2021,10,24,16,21,975.72
2021,10,24,16,22,975.72
2021,10,24,16,23,975.72
2021,10,24,16,24,975.72
2021,10,24,16,25,975.69
2021,10,24,16,26,975.69
2021,10,24,16,27,975.69
2021,10,24,16,28,975.62
2021,10,24,16,29,975.59
2021,10,24,16,30,975.52
2021,10,24,16,31,975.48
2021,10,24,16,32,975.52
2021,10,24,16,33,975.52
2021,10,24,16,34,975.52
2021,10,24,16,35,975.52
2021,10,24,16,36,975.55